User: anonymous   Login
Location: NC_16_and_73
(35.4490°N, 81.0150°W)
Time: 07:44:34
(UTC-04:00)
Language:

Cosmos-2242 - Orbit

View from above orbital plane
View from above orbital plane
View from above satellite
View from above satellite

Ground track
Ground track

The orbit data is extracted from the following two-line orbital elements,

1 22626U 93024A   14304.91424658  .00001767  00000-0  19774-3 0  2486
2 22626 082.5247 225.4983 0021241 065.4575 294.8852 14.86216804163573
Epoch (UTC): 31 October 2014 21:56:30
Eccentricity: 0.0021241
inclination: 82.5247°
perigee height: 595 km
apogee height: 624 km
right ascension of ascending node: 225.4983°
argument of perigee: 65.4575°
revolutions per day: 14.86216804
mean anomaly at epoch: 294.8852°
orbit number at epoch: 16357

The dashed part of the orbit path shows where the satellite is in the earth's shadow,  

DLR